CCCPS LEIB-EGCC

Flight info

Callsign CCCPS
Flight time N/A
Altitude 43000
Route EPAMA N856 EBROX DCT UMURE N863 GIROM DCT AGN DCT SECHE DCT UVELI DCT CNA DCT TUPAR UY120 AKIKI UN867 AVANT UM184 HEMEL T420 ELVOS
Aircraft C750/M-SBDE3FGHRWXY/S

Departure

Time 2026-04-30 13:21
Airport Ibiza Airport (LEIB)

Arrival

Time N/A
Airport Manchester Airport (EGCC)
Time Latitude Longitude Altitude Speed Heading
2026-04-30 13:10 38.87764 1.37568 5 ft 0 kts 153°
2026-04-30 13:17 38.87702 1.37495 5 ft 15 kts 228°
2026-04-30 13:18 38.87619 1.37533 5 ft 18 kts 152°
2026-04-30 13:18 38.87448 1.37262 5 ft 36 kts 242°
2026-04-30 13:18 38.87333 1.36982 5 ft 34 kts 243°
2026-04-30 13:19 38.87227 1.36718 5 ft 32 kts 243°
2026-04-30 13:19 38.87114 1.36444 5 ft 39 kts 242°
2026-04-30 13:19 38.86976 1.36112 4 ft 43 kts 242°
2026-04-30 13:19 38.86846 1.35823 4 ft 22 kts 205°
2026-04-30 13:20 38.86728 1.35886 2 ft 17 kts 138°
2026-04-30 13:20 38.86780 1.36089 2 ft 56 kts 62°
2026-04-30 13:20 38.87138 1.36952 10 ft 150 kts 62°
2026-04-30 13:20 38.87655 1.38203 491 ft 164 kts 60°
2026-04-30 13:21 38.88003 1.39621 1223 ft 172 kts 79°
2026-04-30 13:21 38.88182 1.41172 1897 ft 179 kts 82°
2026-04-30 13:21 38.88323 1.42616 2524 ft 148 kts 83°
2026-04-30 13:22 38.89027 1.45612 2619 ft 215 kts 60°
2026-04-30 13:22 38.89596 1.47454 3284 ft 222 kts 74°
2026-04-30 13:22 38.90272 1.51301 4811 ft 228 kts 76°
2026-04-30 13:23 38.90672 1.53275 5525 ft 230 kts 74°
2026-04-30 13:23 38.92765 1.56421 6748 ft 238 kts 39°
2026-04-30 13:24 38.95444 1.59511 7383 ft 285 kts 42°
2026-04-30 13:24 38.98448 1.62979 8903 ft 293 kts 41°
2026-04-30 13:25 39.01997 1.65492 10504 ft 300 kts
2026-04-30 13:25 39.06185 1.66030 12167 ft 306 kts
2026-04-30 13:26 39.12611 1.64874 13342 ft 344 kts 332°
2026-04-30 13:26 39.17155 1.62288 13793 ft 365 kts 334°
2026-04-30 13:27 39.21799 1.59724 14992 ft 365 kts 333°
2026-04-30 13:28 39.28931 1.55720 16702 ft 381 kts 333°
2026-04-30 13:28 39.33836 1.52968 17957 ft 387 kts 333°
2026-04-30 13:28 39.36317 1.51570 18596 ft 391 kts 333°
2026-04-30 13:29 39.41354 1.48740 19864 ft 398 kts 333°
2026-04-30 13:29 39.46475 1.45856 21126 ft 405 kts 332°
2026-04-30 13:30 39.54319 1.41432 22952 ft 415 kts 332°
2026-04-30 13:31 39.59703 1.38554 24025 ft 426 kts 338°
2026-04-30 13:31 39.68706 1.36939 25663 ft 442 kts 349°
2026-04-30 13:32 39.74851 1.36102 26698 ft 448 kts 349°
2026-04-30 13:32 39.81092 1.35285 27680 ft 453 kts 349°
2026-04-30 13:33 39.87407 1.34438 28658 ft 459 kts 349°
2026-04-30 13:33 39.93761 1.33592 29557 ft 465 kts 348°
2026-04-30 13:34 39.96985 1.33164 30034 ft 467 kts 349°
2026-04-30 13:34 40.06768 1.31854 31440 ft 471 kts 348°
2026-04-30 13:35 40.10019 1.31421 32082 ft 468 kts 348°
2026-04-30 13:35 40.16485 1.30550 33238 ft 465 kts 348°
2026-04-30 13:36 40.22905 1.29688 34395 ft 462 kts 348°
2026-04-30 13:36 40.26096 1.29258 34951 ft 461 kts 348°
2026-04-30 13:36 40.32470 1.28395 35978 ft 460 kts 348°
2026-04-30 13:37 40.35643 1.27968 36490 ft 459 kts 348°
2026-04-30 13:37 40.41988 1.27111 37624 ft 454 kts 348°
2026-04-30 13:38 40.48225 1.26263 38625 ft 450 kts 347°
2026-04-30 13:38 40.51343 1.25837 38978 ft 451 kts 348°
2026-04-30 13:38 40.57585 1.24992 39730 ft 451 kts 348°
2026-04-30 13:39 40.63850 1.24136 40385 ft 454 kts 348°
2026-04-30 13:39 40.70142 1.23277 41054 ft 455 kts 348°
2026-04-30 13:40 40.73296 1.22847 41409 ft 456 kts 348°
2026-04-30 13:40 40.76446 1.22416 41744 ft 456 kts 349°
2026-04-30 13:40 40.79615 1.21981 42065 ft 457 kts 349°
2026-04-30 13:40 40.82740 1.21553 42382 ft 458 kts 349°
2026-04-30 13:41 40.85919 1.21117 42697 ft 459 kts 349°
2026-04-30 13:41 40.89098 1.20681 43006 ft 460 kts 349°
2026-04-30 13:41 40.92298 1.20239 43073 ft 467 kts 349°
2026-04-30 13:42 40.98877 1.19332 43083 ft 483 kts 349°
2026-04-30 13:42 41.09115 1.17919 43088 ft 504 kts 350°
2026-04-30 13:43 41.16158 1.16986 43078 ft 512 kts 352°
2026-04-30 13:43 41.23270 1.16267 43081 ft 512 kts 351°
2026-04-30 13:44 41.30370 1.15496 43084 ft 512 kts 352°
2026-04-30 13:44 41.37476 1.14763 43081 ft 511 kts 352°
2026-04-30 13:45 41.48124 1.13637 43082 ft 512 kts 352°
2026-04-30 13:46 41.55226 1.12890 43082 ft 512 kts 351°
2026-04-30 13:46 41.62331 1.12137 43081 ft 512 kts 351°
2026-04-30 13:47 41.69422 1.11387 43082 ft 511 kts 351°
2026-04-30 13:47 41.76468 1.10637 43081 ft 511 kts 351°
2026-04-30 13:48 41.83557 1.09883 43081 ft 511 kts 352°
2026-04-30 13:48 41.90654 1.09125 43082 ft 511 kts 352°
2026-04-30 13:49 41.97746 1.08367 43088 ft 511 kts 352°
2026-04-30 13:49 42.04843 1.07606 43092 ft 512 kts 352°
2026-04-30 13:50 42.11950 1.06842 43094 ft 512 kts 352°
2026-04-30 13:50 42.22608 1.05697 43092 ft 512 kts 352°
2026-04-30 13:51 42.28508 1.05060 43092 ft 512 kts 352°
2026-04-30 13:51 42.35614 1.04294 43093 ft 512 kts 352°
2026-04-30 13:52 42.42724 1.03524 43096 ft 513 kts 352°
2026-04-30 13:52 42.49836 1.02751 43096 ft 513 kts 352°
2026-04-30 13:53 42.56948 1.01974 43098 ft 513 kts 352°
2026-04-30 13:53 42.64070 1.01196 43094 ft 513 kts 352°
2026-04-30 13:54 42.71191 1.00415 43101 ft 513 kts 352°
2026-04-30 13:54 42.78309 0.99634 43102 ft 513 kts 352°
2026-04-30 13:55 42.85430 0.98850 43105 ft 514 kts 352°
2026-04-30 13:55 42.92573 0.98065 43099 ft 514 kts 352°
2026-04-30 13:56 42.99702 0.97277 43103 ft 514 kts 352°
2026-04-30 13:56 43.06837 0.96489 43103 ft 514 kts 352°
2026-04-30 13:57 43.13976 0.95697 43102 ft 515 kts 352°
2026-04-30 13:57 43.21072 0.94908 43102 ft 515 kts 353°
2026-04-30 13:58 43.31798 0.93712 43105 ft 515 kts 353°
2026-04-30 13:59 43.38945 0.92913 43104 ft 515 kts 353°
2026-04-30 13:59 43.46098 0.92111 43103 ft 515 kts 353°
2026-04-30 14:00 43.53245 0.91309 43103 ft 516 kts 353°
2026-04-30 14:00 43.63981 0.90099 43106 ft 516 kts 353°
2026-04-30 14:01 43.71139 0.89290 43103 ft 516 kts 353°
2026-04-30 14:01 43.78244 0.88485 43105 ft 516 kts 353°
2026-04-30 14:02 43.85405 0.87663 43102 ft 516 kts 352°
2026-04-30 14:02 43.92301 0.85254 43097 ft 510 kts 335°
2026-04-30 14:03 43.98656 0.80901 43112 ft 509 kts 330°
2026-04-30 14:03 44.05102 0.76780 43108 ft 512 kts 335°
2026-04-30 14:04 44.11573 0.72605 43110 ft 512 kts 332°
2026-04-30 14:04 44.18019 0.68384 43107 ft 512 kts 334°
2026-04-30 14:05 44.24485 0.64219 43108 ft 512 kts 333°
2026-04-30 14:05 44.30936 0.59972 43107 ft 512 kts 333°
2026-04-30 14:06 44.40590 0.53672 43109 ft 512 kts 333°
2026-04-30 14:07 44.50263 0.47299 43110 ft 512 kts 333°
2026-04-30 14:08 44.59921 0.40877 43118 ft 512 kts 333°
2026-04-30 14:08 44.69590 0.34425 43125 ft 513 kts 333°
2026-04-30 14:09 44.76035 0.30120 43127 ft 512 kts 333°
2026-04-30 14:10 44.85665 0.23656 43132 ft 515 kts 333°
2026-04-30 14:10 44.92129 0.19310 43134 ft 514 kts 333°
2026-04-30 14:11 44.98594 0.14946 43132 ft 515 kts 333°
2026-04-30 14:11 45.05060 0.10575 43123 ft 515 kts 333°
2026-04-30 14:12 45.11518 0.06195 43108 ft 515 kts 333°
2026-04-30 14:12 45.17979 0.01803 43109 ft 515 kts 333°
2026-04-30 14:13 45.24400 -0.02573 43113 ft 515 kts 333°
2026-04-30 14:13 45.30857 -0.06985 43111 ft 515 kts 333°
2026-04-30 14:14 45.37307 -0.11403 43113 ft 515 kts 333°
2026-04-30 14:14 45.43762 -0.15834 43111 ft 515 kts 333°
2026-04-30 14:15 45.50222 -0.20283 43111 ft 515 kts 333°
2026-04-30 14:15 45.56673 -0.24735 43111 ft 515 kts 333°
2026-04-30 14:16 45.63123 -0.29199 43113 ft 515 kts 333°
2026-04-30 14:16 45.69794 -0.32984 43099 ft 517 kts 341°
2026-04-30 14:17 45.76693 -0.35938 43106 ft 517 kts 341°
2026-04-30 14:17 45.83491 -0.39113 43111 ft 518 kts 341°
2026-04-30 14:18 45.90373 -0.42169 43108 ft 518 kts 341°
2026-04-30 14:18 46.00676 -0.46890 43109 ft 518 kts 341°
2026-04-30 14:19 46.11013 -0.51600 43109 ft 521 kts 341°
2026-04-30 14:20 46.17919 -0.54757 43110 ft 520 kts 341°
2026-04-30 14:20 46.28269 -0.59517 43108 ft 520 kts 341°
2026-04-30 14:21 46.35165 -0.62692 43107 ft 520 kts 341°
2026-04-30 14:22 46.45380 -0.67958 43100 ft 518 kts 333°
2026-04-30 14:22 46.54964 -0.75122 43109 ft 519 kts 333°
2026-04-30 14:23 46.67866 -0.84566 43113 ft 519 kts 332°
2026-04-30 14:24 46.77536 -0.91662 43108 ft 519 kts 332°
2026-04-30 14:25 46.90430 -1.01206 43098 ft 519 kts 332°
2026-04-30 14:26 46.97277 -1.04559 43081 ft 523 kts 349°
2026-04-30 14:26 47.00895 -1.05199 43088 ft 524 kts 354°
2026-04-30 14:27 47.11810 -1.06152 43100 ft 524 kts 352°
2026-04-30 14:27 47.19055 -1.07396 43091 ft 524 kts 354°
2026-04-30 14:28 47.29955 -1.08768 43080 ft 524 kts 353°
2026-04-30 14:28 47.37214 -1.09789 43079 ft 524 kts 354°
2026-04-30 14:29 47.50519 -1.11626 43079 ft 524 kts 354°
2026-04-30 14:31 47.69874 -1.14291 43070 ft 525 kts 354°
2026-04-30 14:31 47.80775 -1.15817 43068 ft 525 kts 353°
2026-04-30 14:32 47.91703 -1.17345 43069 ft 526 kts 353°
2026-04-30 14:33 47.99000 -1.18374 43072 ft 528 kts 353°
2026-04-30 14:33 48.09955 -1.19919 43076 ft 526 kts 354°
2026-04-30 14:34 48.17202 -1.20947 43073 ft 526 kts 354°
2026-04-30 14:34 48.24502 -1.21983 43072 ft 526 kts 354°
2026-04-30 14:35 48.35440 -1.23543 43072 ft 526 kts 354°
2026-04-30 14:36 48.42730 -1.24587 43059 ft 526 kts 354°
2026-04-30 14:36 48.50004 -1.25631 43059 ft 525 kts 354°
2026-04-30 14:37 48.57290 -1.26680 43060 ft 526 kts 354°
2026-04-30 14:37 48.64567 -1.27730 43073 ft 525 kts 354°
2026-04-30 14:38 48.71848 -1.28784 43074 ft 525 kts 354°
2026-04-30 14:38 48.79112 -1.29839 43070 ft 525 kts 354°
2026-04-30 14:39 48.85148 -1.30718 43073 ft 525 kts 354°
2026-04-30 14:39 48.92425 -1.31780 43071 ft 525 kts 354°
2026-04-30 14:40 49.03324 -1.33377 43073 ft 524 kts 354°
2026-04-30 14:40 49.10582 -1.34445 43078 ft 523 kts 354°
2026-04-30 14:41 49.17830 -1.35514 43080 ft 523 kts 354°
2026-04-30 14:41 49.25080 -1.36586 43088 ft 522 kts 354°
2026-04-30 14:42 49.32321 -1.37660 43089 ft 523 kts 354°
2026-04-30 14:42 49.39554 -1.38736 43089 ft 522 kts 354°
2026-04-30 14:43 49.46732 -1.39808 43096 ft 522 kts 354°
2026-04-30 14:43 49.53959 -1.40889 43095 ft 522 kts 354°
2026-04-30 14:44 49.61211 -1.41581 43096 ft 522 kts
2026-04-30 14:44 49.68464 -1.40797 43107 ft 522 kts
2026-04-30 14:45 49.75730 -1.40225 43112 ft 522 kts
2026-04-30 14:45 49.82988 -1.39556 43110 ft 523 kts
2026-04-30 14:46 49.90249 -1.38912 43108 ft 522 kts
2026-04-30 14:46 49.97507 -1.38274 43106 ft 522 kts
2026-04-30 14:47 50.04721 -1.36945 43109 ft 522 kts
2026-04-30 14:47 50.11873 -1.35050 43116 ft 521 kts
2026-04-30 14:48 50.18995 -1.33358 43118 ft 521 kts
2026-04-30 14:48 50.26152 -1.31516 43122 ft 521 kts
2026-04-30 14:49 50.33318 -1.29753 43128 ft 521 kts
2026-04-30 14:49 50.40483 -1.27933 43136 ft 521 kts
2026-04-30 14:50 50.51102 -1.24383 43140 ft 521 kts 21°
2026-04-30 14:51 50.57441 -1.18919 43147 ft 520 kts 34°
2026-04-30 14:51 50.60402 -1.15634 43160 ft 520 kts 36°
2026-04-30 14:52 50.69531 -1.06399 43156 ft 521 kts 31°
2026-04-30 14:52 50.78670 -0.97080 43160 ft 522 kts 32°
2026-04-30 14:53 50.85105 -0.92016 43161 ft 521 kts 19°
2026-04-30 14:53 50.88568 -0.90321 43166 ft 522 kts 16°
2026-04-30 14:54 51.02390 -0.83206 43176 ft 522 kts 18°
2026-04-30 14:55 51.12756 -0.77890 43170 ft 522 kts 19°
2026-04-30 14:56 51.26564 -0.70671 43181 ft 522 kts 19°
2026-04-30 14:57 51.36927 -0.65214 43182 ft 522 kts 18°
2026-04-30 14:57 51.43792 -0.61570 43170 ft 509 kts 19°
2026-04-30 14:58 51.50400 -0.58073 43169 ft 506 kts 18°
2026-04-30 14:58 51.60628 -0.52622 43182 ft 524 kts 19°
2026-04-30 14:59 51.67503 -0.48954 42580 ft 513 kts 19°
2026-04-30 15:00 51.77460 -0.44829 40630 ft 478 kts
2026-04-30 15:00 51.83920 -0.45882 39412 ft 459 kts 345°
2026-04-30 15:01 51.89660 -0.50156 38226 ft 455 kts 327°
2026-04-30 15:01 51.92286 -0.53083 37633 ft 462 kts 324°
2026-04-30 15:01 51.97757 -0.58875 36378 ft 475 kts 331°
2026-04-30 15:02 52.00665 -0.61459 35743 ft 479 kts 332°
2026-04-30 15:02 52.03563 -0.64214 35100 ft 487 kts 328°
2026-04-30 15:03 52.12364 -0.73019 33124 ft 498 kts 330°
2026-04-30 15:03 52.18316 -0.78862 31797 ft 500 kts 328°
2026-04-30 15:04 52.24247 -0.84775 30461 ft 500 kts 329°
2026-04-30 15:04 52.33046 -0.93507 28486 ft 485 kts 328°
2026-04-30 15:05 52.41560 -1.01987 26582 ft 473 kts 328°
2026-04-30 15:06 52.47123 -1.07578 25333 ft 464 kts 328°
2026-04-30 15:06 52.52594 -1.13068 24109 ft 457 kts 328°
2026-04-30 15:07 52.57962 -1.18482 22900 ft 448 kts 328°
2026-04-30 15:07 52.63233 -1.23805 21723 ft 439 kts 328°
2026-04-30 15:08 52.68393 -1.29034 20571 ft 431 kts 328°
2026-04-30 15:08 52.75959 -1.36730 18453 ft 411 kts 327°
2026-04-30 15:09 52.80803 -1.41679 17527 ft 409 kts 327°
2026-04-30 15:09 52.85623 -1.46614 16602 ft 407 kts 327°
2026-04-30 15:10 52.90409 -1.51528 15685 ft 402 kts 328°
2026-04-30 15:11 52.99808 -1.61215 13870 ft 394 kts 328°
2026-04-30 15:11 53.04283 -1.65846 13001 ft 359 kts 328°
2026-04-30 15:12 53.09079 -1.74150 11871 ft 323 kts 309°
2026-04-30 15:13 53.12028 -1.79824 11137 ft 325 kts 309°
2026-04-30 15:14 53.17846 -1.91151 9648 ft 301 kts 309°
2026-04-30 15:14 53.21005 -1.99801 8518 ft 267 kts 260°
2026-04-30 15:16 53.18247 -2.14287 8156 ft 258 kts 245°
2026-04-30 15:17 53.14736 -2.24300 5384 ft 249 kts 230°
2026-04-30 15:18 53.09993 -2.35974 4180 ft 221 kts 230°
2026-04-30 15:19 53.07402 -2.42377 4180 ft 227 kts 230°